Palacios, TX

7:58 PM CDT on March 27, 2017 (GMT -0500)
Palacios Municipal

Weather History for KPSX - March, 2014

Change the Weather History Date:

Thursday, March 13, 2014

  Actual Average Record
Temperature  
Mean Temperature 52 °F -  
Max Temperature 66 °F 71 °F 81 °F (2001)
Min Temperature 39 °F 52 °F 29 °F (1948)
Degree Days  
Heating Degree Days 12    
Growing Degree Days 2 (Base 50)    
Moisture  
Dew Point 38 °F    
Average Humidity 60    
Maximum Humidity 83    
Minimum Humidity 28    
Precipitation  
Precipitation 0.00 in - - ()
Sea Level Pressure  
Sea Level Pressure 30.27 in    
Wind  
Wind Speed 9 mph (ENE)    
Max Wind Speed 15 mph    
Max Gust Speed 20 mph    
Visibility 10 miles    
Events      
Averages and records for this station are not official NWS values.
T = Trace of Precipitation, MM = Missing Value Source: NWS Daily Summary

Daily Weather History Graph

Daily Weather History Graph

Search for Another Location

Airport or City:

Trip Planner

Search our weather history database for the weather conditions in past years. The results will help you decide how hot, cold, wet, or windy it might be!

Date:

Astronomy

Mar. 13, 2014 Rise Set
Actual Time 7:36 AM CDT 7:32 PM CDT
Civil Twilight 7:13 AM CDT 7:55 PM CDT
Nautical Twilight 6:45 AM CDT 8:23 PM CDT
Astronomical Twilight 6:18 AM CDT 8:50 PM CDT
Moon 5:08 PM CDT (3/13) 5:33 AM CDT (3/13)
Length of Visible Light 12h 42m
Length of Day
11h 55m
Waxing Gibbous, 91% of the Moon is Illuminated
Mar 13
Waxing Gibbous
Mar 16
Full
Mar 23
Last Quarter
Mar 30
New
Apr 7
First Quarter

Hourly Weather History & Observations

Time (CDT) Temp. Windchill Dew Point Humidity Pressure Visibility Wind Dir Wind Speed Gust Speed Precip Events Conditions
12:53 AM 48.0 °F - 34.0 °F 58% 30.25 in 10.0 mi North 10.4 mph - N/A   Clear
1:53 AM 45.0 °F 40.6 °F 34.0 °F 65% 30.27 in 10.0 mi North 8.1 mph - N/A   Clear
2:53 AM 45.0 °F 42.6 °F 34.0 °F 65% 30.27 in 10.0 mi North 4.6 mph - N/A   Clear
3:53 AM 42.1 °F 36.1 °F 34.0 °F 73% 30.26 in 10.0 mi North 10.4 mph - N/A   Clear
4:53 AM 41.0 °F 36.4 °F 34.0 °F 76% 30.26 in 10.0 mi North 6.9 mph - N/A   Clear
5:53 AM 39.9 °F 35.1 °F 34.0 °F 79% 30.29 in 10.0 mi NNW 6.9 mph - N/A   Clear
6:53 AM 39.9 °F 34.5 °F 34.0 °F 79% 30.31 in 10.0 mi North 8.1 mph - N/A   Clear
7:53 AM 39.9 °F 36.7 °F 34.0 °F 79% 30.32 in 10.0 mi North 4.6 mph - N/A   Clear
8:53 AM 46.9 °F - 37.9 °F 71% 30.33 in 10.0 mi NNE 6.9 mph - N/A   Clear
9:53 AM 55.9 °F - 34.0 °F 44% 30.35 in 10.0 mi ENE 10.4 mph - N/A   Clear
10:53 AM 60.1 °F - 33.1 °F 36% 30.35 in 10.0 mi ENE 11.5 mph - N/A   Clear
11:53 AM 63.0 °F - 28.9 °F 28% 30.34 in 10.0 mi ESE 13.8 mph - N/A   Clear
12:53 PM 64.0 °F - 35.1 °F 34% 30.32 in 10.0 mi SE 11.5 mph - N/A   Clear
1:53 PM 64.0 °F - 37.9 °F 38% 30.30 in 10.0 mi SE 11.5 mph - N/A   Clear
2:53 PM 64.0 °F - 43.0 °F 46% 30.27 in 10.0 mi SSE 12.7 mph 17.3 mph N/A   Clear
3:53 PM 66.0 °F - 44.1 °F 45% 30.24 in 10.0 mi SE 11.5 mph 19.6 mph N/A   Clear
4:53 PM 64.0 °F - 43.0 °F 46% 30.22 in 10.0 mi SE 13.8 mph - N/A   Clear
5:53 PM 63.0 °F - 44.1 °F 50% 30.21 in 10.0 mi ESE 15.0 mph - N/A   Clear
7:53 PM 57.0 °F - 46.9 °F 69% 30.19 in 10.0 mi ESE 8.1 mph - N/A   Clear
8:53 PM 55.9 °F - 48.0 °F 75% 30.19 in 10.0 mi East 6.9 mph - N/A   Clear
9:53 PM 54.0 °F - 48.0 °F 80% 30.19 in 10.0 mi ESE 8.1 mph - N/A   Clear
10:53 PM 55.0 °F - 50.0 °F 83% 30.18 in 10.0 mi ESE 8.1 mph - N/A   Clear